Theta_e
285 285 285 285 285 285 285 286 288 288 288 288 289 288 287 286 286 285 285 284 284 285
283 283 283 283 284 284 284 286 286 286 286 287 287 287 287 286 285 285 285 285 284 285
282 282 282 282 282 282 283 284 284 284 284 285 286 286 286 285 286 284 285 285 284 284
281 281 281 281 281 282 282 283 283 283 283 284 284 285 284 284 285 284 285 285 284 284
281 281 280 280 281 281 281 282 282 282 282 283 283 283 283 283 284 284 284 284 284 284
280 280 280 280 280 281 281 281 281 282 281 282 282 282 282 282 283 284 284 284 284 284
280 280 280 280 280 280 281 280 280 281 281 281 281 282 282 282 282 282 283 284 284 284
279 279 279 279 279 280 280 280 280 280 280 280 281 281 281 282 282 282 282 283 284 284
274 275 275 277 278 279 279 279 279 279 279 279 281 283 284 284 281 282 283 283 283 284
271 271 272 273 275 276 277 278 277 278 278 277 278 282 283 284 282 282 282 283 283 284
270 270 272 272 273 273 275 274 275 276 276 276 277 282 283 283 281 281 282 283 283 283
272 271 272 272 273 274 275 274 274 275 275 275 276 281 282 281 280 280 280 282 284 284
272 271 271 272 273 274 274 274 276 276 276 275 274 279 281 280 280 279 279 282 283 284
273 273 273 273 273 273 272 273 273 274 275 274 274 275 280 281 281 280 279 281 282 283
Wind_Speed
5 3 2 3 3 3 3 4 5 5 5 6 6 5 5 4 5 5 5 7 5 4
4 5 4 5 4 3 4 5 6 6 6 6 6 6 5 5 7 5 6 7 7 6
4 4 4 4 5 5 5 5 6 6 6 7 6 6 5 5 6 6 7 6 7 7
4 5 5 5 5 5 5 5 6 6 7 6 7 6 5 6 8 7 9 7 8 10
5 5 5 5 6 5 6 6 6 6 6 6 6 7 7 8 8 8 9 10 8 11
5 5 6 6 6 6 6 6 6 6 7 8 8 8 8 7 9 10 10 11 10 11
5 5 6 6 6 6 5 6 6 7 7 8 8 9 10 9 9 9 10 11 11 12
5 5 6 6 6 7 6 6 6 7 8 8 8 8 8 9 10 10 11 11 12 12
5 5 6 7 7 7 7 7 6 6 7 10 8 17 19 17 11 12 14 15 13 11
5 6 7 6 6 8 9 7 8 8 8 9 11 21 21 21 12 14 15 15 15 13
6 7 7 6 7 7 7 7 8 8 9 9 10 22 22 22 15 14 16 17 16 16
6 7 7 8 9 9 8 8 9 8 10 11 11 22 22 20 14 14 16 14 15 15
7 7 8 9 10 8 7 9 8 10 10 11 13 20 23 20 11 12 12 13 13 19
7 8 8 9 7 8 9 9 9 11 11 12 12 13 23 23 13 9 10 10 9 7
Wind_Direction
37 29 14 352 331 322 309 308 307 317 312 302 287 267 242 235 238 222 230 232 220 230
16 13 349 339 330 315 311 315 321 320 315 308 298 280 259 243 248 223 233 236 229 226
343 342 332 327 323 317 305 310 315 317 313 309 302 293 275 257 252 231 244 239 230 232
328 327 325 316 312 310 305 304 304 308 308 306 305 301 281 262 265 250 257 245 232 239
317 321 317 311 310 311 304 303 293 298 293 294 293 294 289 285 279 264 261 256 240 240
302 301 295 293 294 297 296 297 301 293 293 296 295 294 290 276 279 271 264 262 256 251
268 264 264 270 274 277 274 281 287 287 283 284 285 283 286 285 279 275 268 263 256 254
280 287 288 281 275 272 265 267 264 281 283 280 276 280 287 283 280 278 277 268 258 253
284 284 280 279 279 277 271 262 260 259 269 282 276 284 291 292 288 284 282 279 273 258
261 268 270 265 270 270 273 271 267 268 269 273 277 288 291 292 287 282 277 275 276 277
270 271 276 275 271 269 268 255 266 269 271 273 277 286 290 294 291 282 276 272 270 273
250 260 268 273 275 275 279 273 262 257 269 273 276 284 289 293 285 280 277 273 269 268
246 245 254 258 265 264 260 264 267 270 266 267 273 279 287 290 275 271 275 272 268 268
246 247 246 256 250 255 257 261 262 266 273 274 265 270 282 286 272 267 272 269 271 267